,,,PA_Meas_PMT16A,,PR_Meas_QMR101_102,,RH_Meas_QMH101,,SR_Meas_QMS101,,TA_Meas_QMH101,,GenWind,,GenWind,
date,time,status,PA,status,PR,status,RH,status,SR,status,TA,status,DirAvg,status,SpdAvg,
2008-11-29, 00:00:04,VALID,1005.4,VALID,0,VALID,86.9769,VALID,0,VALID,26.5486,VALID,46,VALID,0.820703,
2008-11-29, 00:01:04,VALID,1005.39,VALID,0,VALID,86.7861,VALID,0,VALID,26.5466,VALID,31,VALID,1.15195,
2008-11-29, 00:02:04,VALID,1005.39,VALID,0,VALID,86.7556,VALID,0,VALID,26.5876,VALID,7,VALID,0.607031,
2008-11-29, 00:03:04,VALID,1005.37,VALID,0,VALID,86.6946,VALID,0,VALID,26.5876,VALID,42,VALID,1.10781,
2008-11-29, 00:04:04,VALID,1005.4,VALID,0,VALID,86.7861,VALID,0,VALID,26.607,VALID,356,VALID,0.576172,
2008-11-29, 00:05:04,VALID,1005.36,VALID,0,VALID,86.7861,VALID,0,VALID,26.5876,VALID,5,VALID,1.20664,
2008-11-29, 00:06:04,VALID,1005.35,VALID,0,VALID,86.8395,VALID,0,VALID,26.5855,VALID,23,VALID,0.282422,
2008-11-29, 00:07:04,VALID,1005.34,VALID,0,VALID,87.015,VALID,0,VALID,26.5466,VALID,6,VALID,0.786719,
2008-11-29, 00:08:04,VALID,1005.36,VALID,0,VALID,87.2973,VALID,0,VALID,26.5076,VALID,24,VALID,0.741016,
2008-11-29, 00:09:04,VALID,1005.34,VALID,0,VALID,87.4117,VALID,0,VALID,26.4901,VALID,23,VALID,0.891797,
2008-11-29, 00:10:04,VALID,1005.34,VALID,0,VALID,87.5795,VALID,0.100563,VALID,26.4687,VALID,9,VALID,0.444141,
2008-11-29, 00:11:04,VALID,1005.32,VALID,0,VALID,87.7932,VALID,0.100563,VALID,26.4082,VALID,13,VALID,0.716406,
2008-11-29, 00:12:04,VALID,1005.28,VALID,0,VALID,87.7779,VALID,0.100563,VALID,26.3693,VALID,23,VALID,2.01992,
2008-11-29, 00:13:04,VALID,1005.26,VALID,0,VALID,87.3202,VALID,0.100563,VALID,26.5466,VALID,21,VALID,1.09648,
2008-11-29, 00:14:04,VALID,1005.23,VALID,0,VALID,86.9998,VALID,0.100563,VALID,26.605,VALID,22,VALID,1.28555,
2008-11-29, 00:15:04,VALID,1005.22,VALID,0,VALID,86.954,VALID,0,VALID,26.6245,VALID,33,VALID,0.933203,
2008-11-29, 00:16:04,VALID,1005.19,VALID,0,VALID,86.9464,VALID,0.100563,VALID,26.5835,VALID,24,VALID,0.939453,
2008-11-29, 00:17:04,VALID,1005.16,VALID,0,VALID,86.9998,VALID,0,VALID,26.605,VALID,28,VALID,1.1418,
2008-11-29, 00:18:04,VALID,1005.14,VALID,0,VALID,87.0074,VALID,0,VALID,26.603,VALID,25,VALID,0.842578,
2008-11-29, 00:19:04,VALID,1005.08,VALID,0,VALID,87.1294,VALID,0,VALID,26.5855,VALID,9,VALID,0.721875,
2008-11-29, 00:20:04,VALID,1005.09,VALID,0,VALID,87.3354,VALID,0,VALID,26.5466,VALID,39,VALID,1.68203,
2008-11-29, 00:21:04,VALID,1005.09,VALID,0,VALID,87.3202,VALID,0,VALID,26.5661,VALID,28,VALID,1.22266,
2008-11-29, 00:22:04,VALID,1005.07,VALID,0,VALID,87.4117,VALID,0.100563,VALID,26.5251,VALID,49,VALID,1.14492,
2008-11-29, 00:23:04,VALID,1005.07,VALID,0,VALID,87.3965,VALID,0,VALID,26.5661,VALID,17,VALID,1.02773,
2008-11-29, 00:24:04,VALID,1005.02,VALID,0,VALID,87.221,VALID,0,VALID,26.605,VALID,47,VALID,1.10039,
2008-11-29, 00:25:04,VALID,1004.99,VALID,0,VALID,87.2744,VALID,0.100563,VALID,26.5855,VALID,14,VALID,1.67617,
2008-11-29, 00:26:04,VALID,1004.96,VALID,0,VALID,87.1905,VALID,0,VALID,26.605,VALID,28,VALID,1.09375,
2008-11-29, 00:27:04,VALID,1004.91,VALID,0,VALID,87.2515,VALID,0,VALID,26.607,VALID,25,VALID,0.922656,
2008-11-29, 00:28:04,VALID,1004.89,VALID,0,VALID,87.4499,VALID,0,VALID,26.5466,VALID,32,VALID,1.05938,
2008-11-29, 00:29:04,VALID,1004.86,VALID,0,VALID,87.4422,VALID,0,VALID,26.5641,VALID,36,VALID,1.51016,
2008-11-29, 00:30:04,VALID,1004.87,VALID,0,VALID,87.3888,VALID,0.100563,VALID,26.6245,VALID,34,VALID,1.46328,
2008-11-29, 00:31:04,VALID,1004.86,VALID,0,VALID,87.2668,VALID,0.100563,VALID,26.642,VALID,13,VALID,1.56406,
2008-11-29, 00:32:04,VALID,1004.88,VALID,0,VALID,87.282,VALID,0.100563,VALID,26.683,VALID,20,VALID,2.22187,
2008-11-29, 00:33:04,VALID,1004.85,VALID,0,VALID,87.1142,VALID,0.100563,VALID,26.7394,VALID,30,VALID,2.30195,
2008-11-29, 00:34:04,VALID,1004.87,VALID,0,VALID,86.7861,VALID,0.100563,VALID,26.8193,VALID,21,VALID,1.0543,
2008-11-29, 00:35:04,VALID,1004.83,VALID,0,VALID,86.6946,VALID,0,VALID,26.7804,VALID,42,VALID,0.945313,
2008-11-29, 00:36:04,VALID,1004.85,VALID,0,VALID,86.9158,VALID,0,VALID,26.7199,VALID,352,VALID,0.839844,
2008-11-29, 00:37:04,VALID,1004.86,VALID,0,VALID,87.1218,VALID,0.100563,VALID,26.7024,VALID,15,VALID,1.04141,
2008-11-29, 00:38:04,VALID,1004.83,VALID,0,VALID,87.2439,VALID,0.100563,VALID,26.683,VALID,11,VALID,1.03086,
2008-11-29, 00:39:04,VALID,1004.84,VALID,0,VALID,87.2515,VALID,0.100563,VALID,26.683,VALID,17,VALID,1.13359,
2008-11-29, 00:40:04,VALID,1004.84,VALID,0,VALID,87.2439,VALID,0.100563,VALID,26.6614,VALID,20,VALID,0.944922,
2008-11-29, 00:41:04,VALID,1004.81,VALID,0,VALID,87.3049,VALID,0,VALID,26.6655,VALID,23,VALID,0.907422,
2008-11-29, 00:42:04,VALID,1004.8,VALID,0,VALID,87.3049,VALID,0,VALID,26.6635,VALID,16,VALID,1.69062,
2008-11-29, 00:43:04,VALID,1004.74,VALID,0,VALID,87.1371,VALID,0,VALID,26.683,VALID,29,VALID,1.82266,
2008-11-29, 00:44:04,VALID,1004.77,VALID,0,VALID,87.1981,VALID,0,VALID,26.683,VALID,12,VALID,0.995313,
2008-11-29, 00:45:04,VALID,1004.74,VALID,0,VALID,87.2744,VALID,0,VALID,26.683,VALID,5,VALID,0.889063,
2008-11-29, 00:46:04,VALID,1004.74,VALID,0,VALID,87.3278,VALID,0,VALID,26.644,VALID,32,VALID,1.04336,
2008-11-29, 00:47:04,VALID,1004.76,VALID,0,VALID,87.4804,VALID,0,VALID,26.605,VALID,19,VALID,0.569922,
2008-11-29, 00:48:04,VALID,1004.73,VALID,0,VALID,87.6635,VALID,0,VALID,26.5855,VALID,33,VALID,1.06406,
2008-11-29, 00:49:04,VALID,1004.71,VALID,0,VALID,87.816,VALID,0,VALID,26.5661,VALID,9,VALID,0.367578,
2008-11-29, 00:50:04,VALID,1004.7,VALID,0,VALID,87.9228,VALID,0,VALID,26.5271,VALID,17,VALID,0.63125,
2008-11-29, 00:51:04,VALID,1004.69,VALID,0,VALID,87.9534,VALID,0,VALID,26.5271,VALID,336,VALID,0.629687,
2008-11-29, 00:52:04,VALID,1004.63,VALID,0,VALID,87.9839,VALID,0,VALID,26.4861,VALID,18,VALID,0.744922,
2008-11-29, 00:53:04,VALID,1004.65,VALID,0,VALID,87.9686,VALID,0,VALID,26.5271,VALID,6,VALID,0.96875,
2008-11-29, 00:54:04,VALID,1004.61,VALID,0,VALID,88.0144,VALID,0,VALID,26.5076,VALID,19,VALID,0.903516,
2008-11-29, 00:55:04,VALID,1004.59,VALID,0,VALID,88.1212,VALID,0,VALID,26.4881,VALID,349,VALID,0.728906,
2008-11-29, 00:56:04,VALID,1004.6,VALID,0,VALID,88.1365,VALID,0,VALID,26.4667,VALID,30,VALID,1.12188,
2008-11-29, 00:57:04,VALID,1004.59,VALID,0,VALID,88.2204,VALID,0,VALID,26.4687,VALID,29,VALID,1.53711,
2008-11-29, 00:58:04,VALID,1004.59,VALID,0,VALID,88.167,VALID,0,VALID,26.4881,VALID,13,VALID,0.790625,
2008-11-29, 00:59:04,VALID,1004.58,VALID,0,VALID,88.1593,VALID,0,VALID,26.4687,VALID,13,VALID,0.680469,
2008-11-29, 01:00:04,VALID,1004.56,VALID,0,VALID,88.0983,VALID,0,VALID,26.4881,VALID,14,VALID,0.774609,
2008-11-29, 01:01:04,VALID,1004.55,VALID,0,VALID,88.0831,VALID,0.100563,VALID,26.4881,VALID,21,VALID,1.12227,
2008-11-29, 01:02:04,VALID,1004.54,VALID,0,VALID,88.0144,VALID,0,VALID,26.4861,VALID,351,VALID,0.778906,
2008-11-29, 01:03:04,VALID,1004.55,VALID,0,VALID,87.961,VALID,0,VALID,26.4667,VALID,15,VALID,1.0582,
2008-11-29, 01:04:04,VALID,1004.54,VALID,0,VALID,87.961,VALID,0,VALID,26.4881,VALID,24,VALID,0.939844,
2008-11-29, 01:05:04,VALID,1004.52,VALID,0,VALID,88.0144,VALID,0.100563,VALID,26.4881,VALID,358,VALID,0.699219,
2008-11-29, 01:06:04,VALID,1004.51,VALID,0,VALID,87.9381,VALID,0.100563,VALID,26.4881,VALID,9,VALID,1.125,
2008-11-29, 01:07:04,VALID,1004.52,VALID,0,VALID,87.9991,VALID,0,VALID,26.4687,VALID,11,VALID,0.833203,
2008-11-29, 01:08:04,VALID,1004.53,VALID,0,VALID,88.022,VALID,0,VALID,26.4667,VALID,2,VALID,0.626953,
2008-11-29, 01:09:04,VALID,1004.49,VALID,0,VALID,88.1059,VALID,0,VALID,26.5096,VALID,12,VALID,1.17734,
2008-11-29, 01:10:04,VALID,1004.53,VALID,0,VALID,88.1365,VALID,0,VALID,26.4707,VALID,354,VALID,0.859766,
2008-11-29, 01:11:04,VALID,1004.47,VALID,0,VALID,88.0144,VALID,0,VALID,26.4492,VALID,351,VALID,0.894531,
2008-11-29, 01:12:04,VALID,1004.48,VALID,0,VALID,87.9457,VALID,0,VALID,26.4707,VALID,357,VALID,1.14844,
2008-11-29, 01:13:04,VALID,1004.44,VALID,0,VALID,88.0449,VALID,0,VALID,26.4707,VALID,4,VALID,0.391406,
2008-11-29, 01:14:04,VALID,1004.47,VALID,0,VALID,88.0907,VALID,0,VALID,26.4707,VALID,13,VALID,0.560547,
2008-11-29, 01:15:04,VALID,1004.45,VALID,0,VALID,87.9534,VALID,0,VALID,26.4512,VALID,352,VALID,0.835938,
2008-11-29, 01:16:04,VALID,1004.46,VALID,0,VALID,87.8542,VALID,0,VALID,26.4512,VALID,8,VALID,0.616406,
2008-11-29, 01:17:04,VALID,1004.49,VALID,0,VALID,87.6863,VALID,0,VALID,26.4492,VALID,342,VALID,0.882813,
2008-11-29, 01:18:04,VALID,1004.49,VALID,0,VALID,87.5948,VALID,0,VALID,26.4901,VALID,22,VALID,0.371094,
2008-11-29, 01:19:04,VALID,1004.5,VALID,0,VALID,87.6101,VALID,0,VALID,26.4901,VALID,334,VALID,0.553906,
2008-11-29, 01:20:04,VALID,1004.48,VALID,0,VALID,87.7474,VALID,0,VALID,26.4687,VALID,10,VALID,0.542578,
2008-11-29, 01:21:04,VALID,1004.46,VALID,0,VALID,87.5719,VALID,0,VALID,26.4707,VALID,16,VALID,0.527344,
2008-11-29, 01:22:04,VALID,1004.46,VALID,0,VALID,87.5414,VALID,0,VALID,26.4901,VALID,4,VALID,0.647656,
2008-11-29, 01:23:04,VALID,1004.44,VALID,0,VALID,87.5033,VALID,0,VALID,26.5096,VALID,20,VALID,1.26797,
2008-11-29, 01:24:04,VALID,1004.39,VALID,0,VALID,87.2744,VALID,0,VALID,26.5096,VALID,355,VALID,1.16211,
2008-11-29, 01:25:04,VALID,1004.36,VALID,0,VALID,87.2134,VALID,0,VALID,26.5076,VALID,347,VALID,0.814453,
2008-11-29, 01:26:04,VALID,1004.36,VALID,0,VALID,87.3125,VALID,0,VALID,26.5271,VALID,27,VALID,0.453906,
2008-11-29, 01:27:04,VALID,1004.35,VALID,0,VALID,87.3202,VALID,0,VALID,26.5076,VALID,360,VALID,0.571875,
2008-11-29, 01:28:04,VALID,1004.35,VALID,0,VALID,87.3507,VALID,0,VALID,26.5076,VALID,352,VALID,0.469531,
2008-11-29, 01:29:04,VALID,1004.33,VALID,0,VALID,87.2973,VALID,0,VALID,26.4687,VALID,360,VALID,0.9375,
2008-11-29, 01:30:04,VALID,1004.32,VALID,0,VALID,87.3507,VALID,0,VALID,26.4472,VALID,360,VALID,0.515234,
2008-11-29, 01:31:04,VALID,1004.33,VALID,0,VALID,87.4575,VALID,0,VALID,26.4687,VALID,360,VALID,0.349609,
2008-11-29, 01:32:04,VALID,1004.33,VALID,0,VALID,87.5414,VALID,0,VALID,26.4492,VALID,360,VALID,0.491406,
2008-11-29, 01:33:04,VALID,1004.33,VALID,0,VALID,87.5567,VALID,0,VALID,26.4297,VALID,359,VALID,0.782812,
2008-11-29, 01:34:04,VALID,1004.33,VALID,0,VALID,87.6635,VALID,0,VALID,26.4102,VALID,352,VALID,0.359375,
2008-11-29, 01:35:04,VALID,1004.34,VALID,0,VALID,87.6482,VALID,0,VALID,26.4102,VALID,336,VALID,0.834766,
2008-11-29, 01:36:04,VALID,1004.32,VALID,0,VALID,87.7321,VALID,0,VALID,26.4102,VALID,355,VALID,0.515234,
2008-11-29, 01:37:04,VALID,1004.29,VALID,0,VALID,87.8084,VALID,0,VALID,26.4102,VALID,6,VALID,0.522656,
2008-11-29, 01:38:04,VALID,1004.33,VALID,0,VALID,87.8389,VALID,0,VALID,26.4102,VALID,337,VALID,0.278125,
2008-11-29, 01:39:04,VALID,1004.3,VALID,0,VALID,87.8694,VALID,0,VALID,26.3693,VALID,346,VALID,0.242969,
2008-11-29, 01:40:04,VALID,1004.31,VALID,0,VALID,87.9305,VALID,0,VALID,26.3713,VALID,9,VALID,0.500781,
2008-11-29, 01:41:04,VALID,1004.3,VALID,0,VALID,88.0144,VALID,0,VALID,26.3713,VALID,13,VALID,0.485156,
2008-11-29, 01:42:04,VALID,1004.29,VALID,0,VALID,88.1136,VALID,0,VALID,26.3927,VALID,13,VALID,0.128906,
2008-11-29, 01:43:04,VALID,1004.3,VALID,0,VALID,88.0373,VALID,0,VALID,26.3733,VALID,352,VALID,0.470703,
2008-11-29, 01:44:04,VALID,1004.27,VALID,0,VALID,87.9915,VALID,0,VALID,26.3733,VALID,346,VALID,0.503516,
2008-11-29, 01:45:04,VALID,1004.28,VALID,0,VALID,87.9534,VALID,0,VALID,26.3733,VALID,338,VALID,0.971875,
2008-11-29, 01:46:04,VALID,1004.27,VALID,0,VALID,87.9305,VALID,0,VALID,26.3713,VALID,347,VALID,0.455078,
2008-11-29, 01:47:04,VALID,1004.27,VALID,0,VALID,87.8237,VALID,0,VALID,26.3927,VALID,342,VALID,0.506641,
2008-11-29, 01:48:04,VALID,1004.28,VALID,0,VALID,87.8771,VALID,0,VALID,26.4122,VALID,4,VALID,0.180469,
2008-11-29, 01:49:04,VALID,1004.29,VALID,0,VALID,87.8847,VALID,0,VALID,26.3907,VALID,15,VALID,0.205469,
2008-11-29, 01:50:04,VALID,1004.32,VALID,0,VALID,87.8694,VALID,0,VALID,26.3927,VALID,13,VALID,0.192578,
2008-11-29, 01:51:04,VALID,1004.34,VALID,0,VALID,87.7779,VALID,0,VALID,26.4122,VALID,341,VALID,0.417578,
2008-11-29, 01:52:04,VALID,1004.37,VALID,0,VALID,87.7245,VALID,0,VALID,26.3927,VALID,341,VALID,0,
2008-11-29, 01:53:04,VALID,1004.35,VALID,0,VALID,87.7245,VALID,0,VALID,26.3907,VALID,341,VALID,0,
2008-11-29, 01:54:04,VALID,1004.37,VALID,0,VALID,87.9076,VALID,0,VALID,26.3907,VALID,308,VALID,0.112891,
2008-11-29, 01:55:04,VALID,1004.37,VALID,0,VALID,87.9915,VALID,0,VALID,26.4317,VALID,308,VALID,0.172266,
2008-11-29, 01:56:04,VALID,1004.38,VALID,0,VALID,87.9915,VALID,0,VALID,26.3907,VALID,253,VALID,0.4125,
2008-11-29, 01:57:04,VALID,1004.38,VALID,0,VALID,88.2051,VALID,0,VALID,26.3927,VALID,252,VALID,0.139844,
2008-11-29, 01:58:04,VALID,1004.41,VALID,0,VALID,88.2051,VALID,0,VALID,26.3518,VALID,252,VALID,0.0375,
2008-11-29, 01:59:04,VALID,1004.36,VALID,0,VALID,88.4416,VALID,0,VALID,26.3538,VALID,252,VALID,0.122656,
2008-11-29, 02:00:04,VALID,1004.4,VALID,0,VALID,88.6018,VALID,0,VALID,26.2933,VALID,252,VALID,0,
2008-11-29, 02:01:04,VALID,1004.38,VALID,0,VALID,88.8993,VALID,0,VALID,26.2759,VALID,252,VALID,0,
2008-11-29, 02:02:04,VALID,1004.37,VALID,0,VALID,89.0138,VALID,0,VALID,26.2369,VALID,252,VALID,0,
2008-11-29, 02:03:04,VALID,1004.37,VALID,0,VALID,89.1969,VALID,0,VALID,26.1979,VALID,252,VALID,0,
2008-11-29, 02:04:04,VALID,1004.36,VALID,0,VALID,89.4105,VALID,0,VALID,26.159,VALID,252,VALID,0,
2008-11-29, 02:05:04,VALID,1004.36,VALID,0,VALID,89.5402,VALID,0,VALID,26.12,VALID,252,VALID,0.235156,
2008-11-29, 02:06:05,VALID,1004.37,VALID,0,VALID,89.6699,VALID,0,VALID,26.081,VALID,252,VALID,0.291797,
2008-11-29, 02:07:05,VALID,1004.42,VALID,0,VALID,89.8072,VALID,0,VALID,26.0421,VALID,252,VALID,0.172266,
2008-11-29, 02:08:05,VALID,1004.42,VALID,0,VALID,89.9292,VALID,0,VALID,26.0031,VALID,252,VALID,0.363281,
2008-11-29, 02:09:05,VALID,1004.45,VALID,0,VALID,90.1047,VALID,0,VALID,25.9427,VALID,252,VALID,0.141406,
2008-11-29, 02:10:05,VALID,1004.44,VALID,0,VALID,90.2954,VALID,0,VALID,25.9252,VALID,252,VALID,0.434766,
2008-11-29, 02:11:05,VALID,1004.45,VALID,0,VALID,90.4556,VALID,0,VALID,25.8648,VALID,252,VALID,0.139844,
2008-11-29, 02:12:05,VALID,1004.46,VALID,0,VALID,90.6006,VALID,0,VALID,25.8453,VALID,252,VALID,0,
2008-11-29, 02:13:05,VALID,1004.48,VALID,0,VALID,90.6845,VALID,0,VALID,25.8453,VALID,252,VALID,0,
2008-11-29, 02:14:05,VALID,1004.5,VALID,0,VALID,90.8829,VALID,0,VALID,25.8278,VALID,252,VALID,0.342969,
2008-11-29, 02:15:05,VALID,1004.53,VALID,0,VALID,91.333,VALID,0,VALID,25.8259,VALID,230,VALID,1.15977,
2008-11-29, 02:16:05,VALID,1004.65,VALID,0,VALID,91.455,VALID,0,VALID,25.8473,VALID,215,VALID,1.24648,
2008-11-29, 02:17:05,VALID,1004.83,VALID,0,VALID,91.6534,VALID,0,VALID,25.8064,VALID,215,VALID,1.78047,
2008-11-29, 02:18:05,VALID,1004.96,VALID,0,VALID,91.7144,VALID,0,VALID,25.8083,VALID,215,VALID,2.26367,
2008-11-29, 02:19:05,VALID,1004.94,VALID,0,VALID,89.769,VALID,0,VALID,25.7304,VALID,208,VALID,1.40352,
2008-11-29, 02:20:05,VALID,1004.89,VALID,0,VALID,87.4346,VALID,0,VALID,25.5941,VALID,157,VALID,2.39453,
2008-11-29, 02:21:05,VALID,1004.85,VALID,0,VALID,87.5948,VALID,0,VALID,25.4558,VALID,143,VALID,1.39063,
2008-11-29, 02:22:05,VALID,1004.87,VALID,0,VALID,86.9464,VALID,0,VALID,25.3604,VALID,241,VALID,2.29219,
2008-11-29, 02:23:05,VALID,1004.81,VALID,0,VALID,87.3888,VALID,0,VALID,25.2416,VALID,157,VALID,1.25937,
2008-11-29, 02:24:05,VALID,1004.97,VALID,0,VALID,88.1822,VALID,0,VALID,25.224,VALID,208,VALID,3.79375,
2008-11-29, 02:25:05,VALID,1004.99,VALID,0,VALID,88.8459,VALID,0,VALID,25.1851,VALID,209,VALID,1.77891,
2008-11-29, 02:26:05,VALID,1005.01,VALID,0,VALID,89.3342,VALID,0,VALID,25.1248,VALID,197,VALID,2.07383,
2008-11-29, 02:27:05,VALID,1004.97,VALID,0,VALID,89.0901,VALID,0,VALID,25.0663,VALID,199,VALID,3.19844,
2008-11-29, 02:28:05,VALID,1004.97,VALID,0,VALID,88.6247,VALID,0,VALID,24.9885,VALID,185,VALID,2.92891,
2008-11-29, 02:29:05,VALID,1005.01,VALID,0,VALID,87.7703,VALID,0,VALID,24.8911,VALID,202,VALID,1.83477,
2008-11-29, 02:30:05,VALID,1004.97,VALID,0,VALID,87.6558,VALID,0,VALID,24.854,VALID,331,VALID,0.716406,
2008-11-29, 02:31:05,VALID,1004.99,VALID,0,VALID,87.961,VALID,0,VALID,24.8346,VALID,208,VALID,1.76797,
2008-11-29, 02:32:05,VALID,1004.94,VALID,0,VALID,87.9686,VALID,0,VALID,24.7743,VALID,168,VALID,2.3582,
2008-11-29, 02:33:05,VALID,1004.98,VALID,0,VALID,88.1365,VALID,0,VALID,24.7372,VALID,211,VALID,3.29102,
2008-11-29, 02:34:05,VALID,1004.91,VALID,0,VALID,88.8765,VALID,0,VALID,24.6574,VALID,228,VALID,3.01094,
2008-11-29, 02:35:05,VALID,1005,VALID,0,VALID,89.1587,VALID,0,VALID,24.5796,VALID,217,VALID,2.02734,
2008-11-29, 02:36:05,VALID,1005,VALID,0,VALID,89.296,VALID,0,VALID,24.5425,VALID,187,VALID,2.42539,
2008-11-29, 02:37:05,VALID,1005.06,VALID,0,VALID,89.2503,VALID,0,VALID,24.4043,VALID,205,VALID,1.63477,
2008-11-29, 02:38:05,VALID,1005.05,VALID,0,VALID,88.9451,VALID,0,VALID,24.3478,VALID,216,VALID,2.84609,
2008-11-29, 02:39:05,VALID,1005.07,VALID,0,VALID,88.8765,VALID,0,VALID,24.2699,VALID,187,VALID,3.0375,
2008-11-29, 02:40:05,VALID,1005.03,VALID,0,VALID,88.6781,VALID,0,VALID,24.1726,VALID,227,VALID,2.30586,
2008-11-29, 02:41:05,VALID,1005.06,VALID,0,VALID,88.9146,VALID,0,VALID,24.0929,VALID,216,VALID,3.6418,
2008-11-29, 02:42:05,VALID,1005.01,VALID,0,VALID,89.4181,VALID,0,VALID,24.0345,VALID,212,VALID,3.69609,
2008-11-29, 02:43:05,VALID,1005.15,VALID,0,VALID,90.0132,VALID,0,VALID,24.015,VALID,123,VALID,1.83945,
2008-11-29, 02:44:05,VALID,1005.06,VALID,0,VALID,90.5396,VALID,0,VALID,23.9955,VALID,188,VALID,1.78008,
2008-11-29, 02:45:05,VALID,1004.98,VALID,0,VALID,91.0736,VALID,0,VALID,24.015,VALID,205,VALID,3.15156,
2008-11-29, 02:46:05,VALID,1004.98,VALID,0,VALID,91.3558,VALID,0,VALID,23.9955,VALID,183,VALID,2.94375,
2008-11-29, 02:47:05,VALID,1005.04,VALID,0,VALID,91.4626,VALID,0,VALID,24.015,VALID,244,VALID,1.85195,
2008-11-29, 02:48:05,VALID,1005,VALID,0,VALID,91.7754,VALID,0,VALID,24.015,VALID,357,VALID,0.704297,
2008-11-29, 02:49:05,VALID,1004.99,VALID,0,VALID,91.8899,VALID,0,VALID,23.9955,VALID,211,VALID,1.64336,
2008-11-29, 02:50:05,VALID,1005.01,VALID,0,VALID,91.8059,VALID,0,VALID,24.015,VALID,208,VALID,3.98711,
2008-11-29, 02:51:05,VALID,1004.96,VALID,0,VALID,91.9662,VALID,0,VALID,24.0752,VALID,211,VALID,2.20156,
2008-11-29, 02:52:05,VALID,1004.96,VALID,0,VALID,91.8975,VALID,0,VALID,24.0929,VALID,202,VALID,3.10625,
2008-11-29, 02:53:05,VALID,1004.94,VALID,0,VALID,91.9204,VALID,0,VALID,24.1123,VALID,13,VALID,1.06133,
2008-11-29, 02:54:05,VALID,1004.94,VALID,0,VALID,91.8517,VALID,0,VALID,24.1318,VALID,199,VALID,2.81836,
2008-11-29, 02:55:05,VALID,1004.92,VALID,0,VALID,91.7907,VALID,0,VALID,24.1689,VALID,231,VALID,1.86758,
2008-11-29, 02:56:05,VALID,1004.9,VALID,0,VALID,91.8746,VALID,0,VALID,24.2097,VALID,175,VALID,1.55547,
2008-11-29, 02:57:05,VALID,1004.93,VALID,0,VALID,92.0272,VALID,0,VALID,24.2486,VALID,128,VALID,0.809375,
2008-11-29, 02:58:05,VALID,1004.9,VALID,0,VALID,91.722,VALID,0,VALID,24.2486,VALID,188,VALID,1.46172,
2008-11-29, 02:59:05,VALID,1004.89,VALID,0,VALID,92.0196,VALID,0,VALID,24.2486,VALID,217,VALID,1.03242,
2008-11-29, 03:00:05,VALID,1004.87,VALID,0,VALID,92.1874,VALID,0,VALID,24.2486,VALID,54,VALID,0.851563,
2008-11-29, 03:01:05,VALID,1004.86,VALID,0,VALID,92.2713,VALID,0,VALID,24.2681,VALID,349,VALID,1.33672,
2008-11-29, 03:02:05,VALID,1004.84,VALID,0,VALID,92.4086,VALID,0,VALID,24.2875,VALID,177,VALID,1.54688,
2008-11-29, 03:03:05,VALID,1004.87,VALID,0,VALID,92.4925,VALID,0,VALID,24.3265,VALID,316,VALID,1.24336,
2008-11-29, 03:04:05,VALID,1004.83,VALID,0,VALID,92.4773,VALID,0,VALID,24.3459,VALID,179,VALID,1.00898,
2008-11-29, 03:05:05,VALID,1004.85,VALID,0,VALID,92.3781,VALID,0,VALID,24.3459,VALID,163,VALID,0.232422,
2008-11-29, 03:06:05,VALID,1004.84,VALID,0,VALID,92.2866,VALID,0,VALID,24.3459,VALID,133,VALID,0.55625,
2008-11-29, 03:07:05,VALID,1004.84,VALID,0,VALID,92.3857,VALID,0,VALID,24.3441,VALID,338,VALID,0.835547,
2008-11-29, 03:08:05,VALID,1004.82,VALID,0,VALID,92.4544,VALID,0.100563,VALID,24.3636,VALID,313,VALID,0.766797,
2008-11-29, 03:09:05,VALID,1004.87,VALID,0,VALID,92.6756,VALID,0,VALID,24.4238,VALID,241,VALID,1.24141,
2008-11-29, 03:10:05,VALID,1004.87,VALID,0,VALID,92.607,VALID,0,VALID,24.4433,VALID,299,VALID,1.51289,
2008-11-29, 03:11:05,VALID,1004.84,VALID,0,VALID,92.607,VALID,0.100563,VALID,24.4628,VALID,333,VALID,0.972656,
2008-11-29, 03:12:05,VALID,1004.84,VALID,0,VALID,92.4697,VALID,0,VALID,24.4609,VALID,334,VALID,1.04688,
2008-11-29, 03:13:05,VALID,1004.88,VALID,0,VALID,92.3705,VALID,0,VALID,24.5212,VALID,306,VALID,1.64531,
2008-11-29, 03:14:05,VALID,1004.9,VALID,0,VALID,92.2103,VALID,0,VALID,24.5406,VALID,284,VALID,2.06367,
2008-11-29, 03:15:05,VALID,1004.86,VALID,0,VALID,92.2103,VALID,0,VALID,24.5388,VALID,311,VALID,0.866406,
2008-11-29, 03:16:05,VALID,1004.89,VALID,0,VALID,92.2484,VALID,0,VALID,24.599,VALID,265,VALID,1.39805,
2008-11-29, 03:17:05,VALID,1004.88,VALID,0,VALID,92.2866,VALID,0,VALID,24.6185,VALID,228,VALID,1.51172,
2008-11-29, 03:18:05,VALID,1004.85,VALID,0,VALID,92.2408,VALID,0,VALID,24.6185,VALID,296,VALID,2.19492,
2008-11-29, 03:19:05,VALID,1004.86,VALID,0,VALID,92.2484,VALID,0,VALID,24.6556,VALID,297,VALID,2.01797,
2008-11-29, 03:20:05,VALID,1004.89,VALID,0,VALID,92.3476,VALID,0,VALID,24.6945,VALID,280,VALID,1.61406,
2008-11-29, 03:21:05,VALID,1004.86,VALID,0,VALID,92.3552,VALID,0,VALID,24.6945,VALID,147,VALID,1.1875,
2008-11-29, 03:22:05,VALID,1004.87,VALID,0,VALID,92.3247,VALID,0.100563,VALID,24.7353,VALID,322,VALID,1.23359,
2008-11-29, 03:23:05,VALID,1004.85,VALID,0,VALID,92.3705,VALID,0.100563,VALID,24.6945,VALID,223,VALID,0.100391,
2008-11-29, 03:24:05,VALID,1004.84,VALID,0,VALID,92.462,VALID,0,VALID,24.714,VALID,292,VALID,1.15234,
2008-11-29, 03:25:05,VALID,1004.84,VALID,0,VALID,92.5383,VALID,0.100563,VALID,24.7335,VALID,223,VALID,1.14219,
2008-11-29, 03:26:05,VALID,1004.91,VALID,0,VALID,92.607,VALID,0,VALID,24.7529,VALID,283,VALID,1.20273,
2008-11-29, 03:27:05,VALID,1004.91,VALID,0,VALID,92.1111,VALID,0.100563,VALID,24.7743,VALID,312,VALID,1.44102,
2008-11-29, 03:28:05,VALID,1004.93,VALID,0,VALID,92.0501,VALID,0,VALID,24.7937,VALID,342,VALID,1.09023,
2008-11-29, 03:29:05,VALID,1004.94,VALID,0,VALID,91.5466,VALID,0,VALID,24.7937,VALID,293,VALID,1.23789,
2008-11-29, 03:30:05,VALID,1004.94,VALID,0,VALID,90.9515,VALID,0,VALID,24.7335,VALID,312,VALID,0.617188,
2008-11-29, 03:31:05,VALID,1004.97,VALID,0,VALID,90.8523,VALID,0.100563,VALID,24.7548,VALID,295,VALID,1.02813,
2008-11-29, 03:32:05,VALID,1004.98,VALID,0,VALID,90.9057,VALID,0.100563,VALID,24.7529,VALID,276,VALID,0.303125,
2008-11-29, 03:33:05,VALID,1005.01,VALID,0,VALID,90.5624,VALID,0,VALID,24.7548,VALID,283,VALID,1.28164,
2008-11-29, 03:34:05,VALID,1005.02,VALID,0,VALID,90.593,VALID,0.100563,VALID,24.7529,VALID,243,VALID,0.617578,
2008-11-29, 03:35:05,VALID,1004.99,VALID,0,VALID,90.7303,VALID,0.100563,VALID,24.7548,VALID,255,VALID,0.519922,
2008-11-29, 03:36:05,VALID,1005.01,VALID,0,VALID,90.654,VALID,0.100563,VALID,24.7335,VALID,186,VALID,0.707031,
2008-11-29, 03:37:05,VALID,1004.99,VALID,0,VALID,90.8523,VALID,0,VALID,24.7353,VALID,304,VALID,0.325,
2008-11-29, 03:38:05,VALID,1004.95,VALID,0,VALID,90.9973,VALID,0,VALID,24.7548,VALID,272,VALID,0.707422,
2008-11-29, 03:39:05,VALID,1004.94,VALID,0,VALID,91.2109,VALID,0.100563,VALID,24.7529,VALID,282,VALID,0.434375,
2008-11-29, 03:40:05,VALID,1004.9,VALID,0,VALID,91.4703,VALID,0,VALID,24.7529,VALID,270,VALID,0.829297,
2008-11-29, 03:41:05,VALID,1004.89,VALID,0,VALID,91.455,VALID,0,VALID,24.7919,VALID,263,VALID,0.960156,
2008-11-29, 03:42:05,VALID,1004.86,VALID,0,VALID,91.5847,VALID,0,VALID,24.8113,VALID,274,VALID,0.410937,
2008-11-29, 03:43:05,VALID,1004.85,VALID,0,VALID,91.6763,VALID,0.100563,VALID,24.8113,VALID,294,VALID,1.31562,
2008-11-29, 03:44:05,VALID,1004.88,VALID,0,VALID,91.6839,VALID,0.100563,VALID,24.8522,VALID,261,VALID,1.4707,